Franklin, NC

10:48 AM EDT on March 29, 2017 (GMT -0400)
Franklin

Weather History for K1A5 - August, 2013

Change the Weather History Date:

Saturday, August 17, 2013

  Actual Average (KTOC) Record (KTOC)
Temperature  
Mean Temperature 61 °F -  
Max Temperature 68 °F 87 °F 95 °F (2016)
Min Temperature 54 °F 66 °F 66 °F (2014)
Degree Days  
Heating Degree Days 4    
Growing Degree Days 11 (Base 50)    
Moisture  
Dew Point 59 °F    
Average Humidity 88    
Maximum Humidity 100    
Minimum Humidity 63    
Precipitation  
Precipitation 0.01 in - - ()
Sea Level Pressure  
Sea Level Pressure 30.19 in    
Wind  
Wind Speed 0 mph (North)    
Max Wind Speed 0 mph    
Max Gust Speed -    
Visibility 8 miles    
Events Rain    
Averages and records for this station are not official NWS values.
T = Trace of Precipitation, MM = Missing Value Source: NWS Daily Summary

Daily Weather History Graph

Daily Weather History Graph

Search for Another Location

Airport or City:

Trip Planner

Search our weather history database for the weather conditions in past years. The results will help you decide how hot, cold, wet, or windy it might be!

Date:

Astronomy

Aug. 17, 2013 Rise Set
Actual Time 6:55 AM EDT 8:19 PM EDT
Civil Twilight 6:28 AM EDT 8:46 PM EDT
Nautical Twilight 5:56 AM EDT 9:18 PM EDT
Astronomical Twilight 5:22 AM EDT 9:51 PM EDT
Moon 5:30 PM EDT (8/17) 3:01 AM EDT (8/17)
Length of Visible Light 14h 18m
Length of Day
13h 24m
Waxing Gibbous, 84% of the Moon is Illuminated
Aug 17
Waxing Gibbous
Aug 20
Full
Aug 28
Last Quarter
Sep 5
New
Sep 12
First Quarter

Hourly Weather History & Observations

Time (EDT) Temp. Dew Point Humidity Pressure Visibility Wind Dir Wind Speed Gust Speed Precip Events Conditions
12:15 AM 55.9 °F 55.4 °F 98% 30.20 in 4.0 mi Calm Calm - N/A   Clear
12:35 AM 56.1 °F 55.4 °F 97% 30.20 in 4.0 mi Calm Calm - N/A   Clear
12:55 AM 55.6 °F 54.9 °F 97% 30.20 in 3.0 mi Calm Calm - N/A   Clear
1:15 AM 55.2 °F 54.5 °F 97% 30.20 in 1.8 mi Calm Calm - N/A   Mist
1:35 AM 54.9 °F 54.1 °F 97% 30.20 in 5.0 mi Calm Calm - N/A   Scattered Clouds
1:55 AM 55.8 °F 55.0 °F 97% 30.20 in 2.5 mi Calm Calm - N/A   Overcast
2:15 AM 56.3 °F 55.6 °F 97% 30.20 in 2.5 mi Calm Calm - N/A   Overcast
2:35 AM 56.7 °F 55.9 °F 97% 30.20 in 5.0 mi Calm Calm - N/A   Overcast
2:55 AM 57.0 °F 56.3 °F 97% 30.20 in 7.0 mi Calm Calm - N/A   Overcast
3:15 AM 57.2 °F 56.5 °F 97% 30.20 in 7.0 mi Calm Calm - N/A   Overcast
3:35 AM 57.4 °F 56.8 °F 98% 30.20 in 7.0 mi Calm Calm - N/A   Overcast
3:55 AM 57.4 °F 57.2 °F 99% 30.20 in 7.0 mi Calm Calm - N/A   Overcast
4:15 AM 57.6 °F 57.2 °F 99% 30.19 in 7.0 mi Calm Calm - N/A   Overcast
4:35 AM 57.6 °F 57.2 °F 99% 30.19 in 7.0 mi Calm Calm - N/A   Overcast
4:55 AM 57.7 °F 57.4 °F 99% 30.19 in 7.0 mi Calm Calm - N/A   Overcast
5:15 AM 57.7 °F 57.4 °F 99% 30.18 in 7.0 mi Calm Calm - N/A   Overcast
5:35 AM 57.7 °F 57.6 °F 99% 30.18 in 10.0 mi Calm Calm - N/A   Overcast
5:55 AM 58.1 °F 58.1 °F 100% 30.18 in 10.0 mi Calm Calm - N/A   Overcast
6:15 AM 58.1 °F 58.1 °F 100% 30.18 in 7.0 mi Calm Calm - N/A   Overcast
6:35 AM 58.1 °F 58.1 °F 100% 30.19 in 7.0 mi Calm Calm - N/A   Overcast
6:55 AM 58.1 °F 57.9 °F 99% 30.20 in 7.0 mi Calm Calm - N/A   Overcast
7:15 AM 58.1 °F 57.9 °F 99% 30.20 in 7.0 mi Calm Calm - N/A   Overcast
7:35 AM 58.1 °F 57.7 °F 99% 30.20 in 7.0 mi Calm Calm - N/A   Overcast
7:55 AM 58.8 °F 58.5 °F 99% 30.20 in 10.0 mi Calm Calm - N/A   Overcast
8:15 AM 59.0 °F 58.6 °F 99% 30.20 in 10.0 mi Calm Calm - N/A   Overcast
8:35 AM 59.2 °F 59.0 °F 99% 30.20 in 10.0 mi Calm Calm - N/A   Overcast
8:55 AM 60.1 °F 58.3 °F 94% 30.20 in 10.0 mi Calm Calm - N/A   Mostly Cloudy
9:15 AM 61.0 °F 58.5 °F 91% 30.22 in 10.0 mi Calm Calm - N/A   Mostly Cloudy
9:35 AM 62.4 °F 57.0 °F 82% 30.22 in 10.0 mi Calm Calm - N/A   Overcast
9:55 AM 63.7 °F 56.8 °F 78% 30.22 in 10.0 mi Calm Calm - N/A   Overcast
10:15 AM 64.8 °F 56.7 °F 75% 30.21 in 10.0 mi Calm Calm - N/A   Mostly Cloudy
10:35 AM 65.5 °F 53.4 °F 65% 30.21 in 10.0 mi Calm Calm - N/A   Clear
10:55 AM 66.2 °F 54.5 °F 66% 30.22 in 10.0 mi Calm Calm - N/A   Scattered Clouds
11:15 AM 68.2 °F 55.8 °F 64% 30.22 in 10.0 mi Calm Calm - N/A   Scattered Clouds
11:35 AM 67.3 °F 54.1 °F 63% 30.22 in 10.0 mi Calm Calm - N/A   Scattered Clouds
11:55 AM 68.0 °F 55.0 °F 63% 30.22 in 10.0 mi Calm Calm - N/A   Scattered Clouds
12:15 PM 68.2 °F 55.4 °F 64% 30.21 in 10.0 mi Calm Calm - N/A   Clear
12:35 PM 68.4 °F 56.1 °F 65% 30.21 in 10.0 mi Calm Calm - N/A   Scattered Clouds
12:55 PM 68.5 °F 56.5 °F 65% 30.20 in 10.0 mi Calm Calm - N/A   Mostly Cloudy
1:15 PM 68.9 °F 57.6 °F 67% 30.20 in 10.0 mi Calm Calm - N/A   Overcast
1:35 PM 68.2 °F 57.7 °F 69% 30.20 in 10.0 mi Calm Calm - N/A   Overcast
1:55 PM 68.2 °F 57.0 °F 67% 30.20 in 10.0 mi Calm Calm - N/A   Overcast
2:15 PM 68.9 °F 58.3 °F 69% 30.19 in 10.0 mi Calm Calm - N/A   Overcast
2:35 PM 68.5 °F 58.3 °F 70% 30.19 in 10.0 mi Calm Calm - N/A   Overcast
2:55 PM 68.0 °F 58.6 °F 72% 30.18 in 10.0 mi Calm Calm - N/A   Overcast
3:15 PM 66.7 °F 59.7 °F 78% 30.18 in 7.0 mi Calm Calm - N/A   Light Drizzle
3:35 PM 67.3 °F 60.6 °F 79% 30.18 in 10.0 mi Calm Calm - N/A   Overcast
3:55 PM 67.5 °F 59.0 °F 74% 30.17 in 10.0 mi Calm Calm - N/A   Overcast
4:15 PM 67.5 °F 60.1 °F 77% 30.17 in 10.0 mi Calm Calm - N/A   Light Drizzle
4:35 PM 67.1 °F 59.9 °F 78% 30.16 in 10.0 mi Calm Calm - N/A   Overcast
4:55 PM 67.1 °F 60.4 °F 79% 30.17 in 10.0 mi Calm Calm - N/A Rain Light Rain
5:15 PM 66.4 °F 61.3 °F 84% 30.17 in 10.0 mi Calm Calm - N/A   Light Drizzle
5:35 PM 66.4 °F 62.1 °F 86% 30.17 in 10.0 mi Calm Calm - N/A   Light Drizzle
5:55 PM 66.4 °F 61.2 °F 83% 30.16 in 10.0 mi Calm Calm - N/A   Overcast
6:15 PM 66.2 °F 61.3 °F 84% 30.17 in 10.0 mi Calm Calm - N/A Rain Light Rain
6:35 PM 65.7 °F 62.2 °F 89% 30.17 in 10.0 mi Calm Calm - N/A Rain Light Rain
6:55 PM 64.6 °F 62.4 °F 93% 30.16 in 5.0 mi Calm Calm - N/A Rain Light Rain
7:15 PM 64.4 °F 63.3 °F 96% 30.17 in 7.0 mi Calm Calm - N/A   Drizzle
7:35 PM 64.4 °F 63.5 °F 97% 30.17 in 10.0 mi Calm Calm - N/A   Light Drizzle
7:55 PM 64.0 °F 63.5 °F 98% 30.17 in 10.0 mi Calm Calm - N/A   Overcast
8:15 PM 64.0 °F 63.7 °F 99% 30.18 in 10.0 mi Calm Calm - N/A   Overcast
8:35 PM 63.7 °F 63.5 °F 99% 30.18 in 10.0 mi Calm Calm - N/A   Overcast
8:55 PM 63.5 °F 63.1 °F 99% 30.19 in 7.0 mi Calm Calm - N/A Rain Rain
9:15 PM 63.1 °F 62.8 °F 99% 30.19 in 10.0 mi Calm Calm - N/A   Light Drizzle
9:35 PM 63.5 °F 62.8 °F 97% 30.20 in 10.0 mi Calm Calm - N/A   Overcast
9:55 PM 62.6 °F 62.4 °F 99% 30.20 in 10.0 mi Calm Calm - N/A   Overcast
10:15 PM 62.8 °F 62.4 °F 99% 30.21 in 10.0 mi Calm Calm - N/A Rain Light Rain
10:35 PM 62.8 °F 62.6 °F 99% 30.21 in 10.0 mi Calm Calm - N/A   Overcast
10:55 PM 62.6 °F 62.6 °F 100% 30.22 in 10.0 mi Calm Calm - N/A   Overcast
11:15 PM 62.6 °F 62.4 °F 99% 30.22 in 10.0 mi Calm Calm - N/A   Drizzle
11:35 PM 62.2 °F 62.1 °F 99% 30.22 in 10.0 mi Calm Calm - N/A   Drizzle
11:55 PM 62.1 °F 61.9 °F 99% 30.22 in 7.0 mi Calm Calm - N/A Rain Rain